sat.trackr.live / text

‹ back to catalog

STARLINK-11415 [DTC]

NORAD 62592 · 2025-008F

PAYLOAD ACTIVE UNKNOWN

§ Identity

Operator
Country
US
Launch date
2025-01-13
Launch site
AFETR
Launch vehicle
Mass (kg)
RCS (m²)

Purposes: comms

External: N2YO · Heavens-Above · Gunter

§ Orbital elements

Epoch: 2026-05-25T00:16:06.645792Z

Period
91.66 min
Inclination
43.0025°
Eccentricity
0.0003536
Mean motion
15.70941444 rev/d
Perigee alt
353.8 km
Apogee alt
358.6 km
Semi-major
6,734.3 km
B*
1.6122e-3
RAAN
26.4787°
Arg perigee
251.7264°
Mean anomaly
108.3219°
Rev number
7,922

§ Raw data

STARLINK-11415 [DTC]1 62592U 25008F   26145.01118803  .00212738  00000+0  16122-2 0  99952 62592  43.0025  26.4787 0003536 251.7264 108.3219 15.70941444 79221

JSON: /api/v1/satellites/62592 · /tle

For live sub-satellite position, see the globe view (requires WebGL).

§ Visibility from observer

Set your observer location to see the next 7 days of passes ≥ 10°. The values pass through the URL so the page stays shareable.

No JS? Fill the form by hand. The geolocation button needs JavaScript.